Time,TemperatureF,DewpointF,PressureIn,WindDirection,WindDirectionDegrees,WindSpeedMPH,WindSpeedGustMPH,Humidity,HourlyPrecipIn,Conditions,Clouds,dailyrainin,SoftwareType,DateUTC
2013-02-20 00:00:00,9.6,2.4,30.12,West,273,2.0,7.0,72,0.00, +TSGR FG,SKC,-99.99,VWS V12.07,2013-02-20 06:00:00,
2013-02-20 00:05:00,9.6,2.4,30.12,West,273,1.0,7.0,72,0.00, +TSGR FG,SKC,-99.99,VWS V12.07,2013-02-20 06:05:00,
2013-02-20 00:10:00,9.5,2.3,30.12,West,273,6.0,7.0,72,0.00, +TSGR FG,SKC,-99.99,VWS V12.07,2013-02-20 06:10:00,
2013-02-20 00:15:00,9.5,2.3,30.12,West,273,4.0,11.0,72,0.00, +TSGR FG,SKC,-99.99,VWS V12.07,2013-02-20 06:15:00,
2013-02-20 00:20:00,9.4,2.2,30.12,West,273,1.0,11.0,72,0.00, +TSGR FG,SKC,-99.99,VWS V12.07,2013-02-20 06:20:00,
2013-02-20 00:25:00,9.4,2.2,30.12,West,273,5.0,6.0,72,0.00, +TSGR FG,SKC,-99.99,VWS V12.07,2013-02-20 06:25:00,
2013-02-20 00:30:00,9.3,2.1,30.13,West,273,1.0,7.0,72,0.00, +TSGR FG,SKC,-99.99,VWS V12.07,2013-02-20 06:30:00,
2013-02-20 00:35:00,9.3,2.1,30.13,West,273,6.0,8.0,72,0.00, +TSGR FG,SKC,-99.99,VWS V12.07,2013-02-20 06:35:00,
2013-02-20 00:40:00,9.2,2.3,30.13,West,273,3.0,10.0,73,0.00, +TSGR FG,SKC,-99.99,VWS V12.07,2013-02-20 06:40:00,
2013-02-20 00:45:00,9.2,2.3,30.13,West,273,4.0,8.0,73,0.00, +TSGR FG,SKC,-99.99,VWS V12.07,2013-02-20 06:45:00,
2013-02-20 00:50:00,9.2,2.3,30.14,West,273,2.0,8.0,73,0.00, +TSGR FG,SKC,-99.99,VWS V12.07,2013-02-20 06:50:00,
2013-02-20 00:55:00,9.1,1.9,30.14,West,273,2.0,6.0,72,0.00, +TSGR FG,SKC,-99.99,VWS V12.07,2013-02-20 06:55:00,
2013-02-20 01:00:00,9.1,2.2,30.14,West,273,1.0,8.0,73,0.00, +TSGR FG,SKC,-99.99,VWS V12.07,2013-02-20 07:00:00,
2013-02-20 01:05:00,9.0,2.1,30.15,West,273,3.0,9.0,73,0.00, +TSGR FG,SKC,-99.99,VWS V12.07,2013-02-20 07:05:00,
2013-02-20 01:10:00,9.0,2.1,30.15,West,273,0.0,9.0,73,0.00, +TSGR FG,SKC,-99.99,VWS V12.07,2013-02-20 07:10:00,
2013-02-20 01:20:00,9.0,2.1,30.15,West,273,0.0,9.0,73,0.00, +TSGR FG,SKC,-99.99,VWS V12.07,2013-02-20 07:20:00,
2013-02-20 01:25:00,8.9,2.0,30.15,West,273,2.0,6.0,73,0.00, +TSGR FG,SKC,-99.99,VWS V12.07,2013-02-20 07:25:00,
2013-02-20 01:30:00,8.9,2.0,30.15,West,273,3.0,6.0,73,0.00, +TSGR FG,SKC,-99.99,VWS V12.07,2013-02-20 07:30:00,
2013-02-20 01:35:00,8.8,1.9,30.15,West,273,2.0,8.0,73,0.00, +TSGR FG,SKC,-99.99,VWS V12.07,2013-02-20 07:35:00,
2013-02-20 01:40:00,8.7,1.8,30.15,West,273,1.0,8.0,73,0.00, +TSGR FG,SKC,-99.99,VWS V12.07,2013-02-20 07:40:00,
2013-02-20 01:45:00,8.7,1.8,30.16,West,273,0.0,8.0,73,0.00, +TSGR FG,SKC,-99.99,VWS V12.07,2013-02-20 07:45:00,
2013-02-20 01:50:00,8.7,2.1,30.16,West,273,2.0,8.0,74,0.00, +TSGR FG,SKC,-99.99,VWS V12.07,2013-02-20 07:50:00,
2013-02-20 01:55:00,8.7,2.1,30.17,West,273,3.0,6.0,74,0.00, +TSGR FG,SKC,-99.99,VWS V12.07,2013-02-20 07:55:00,
2013-02-20 02:00:00,8.6,2.0,30.17,West,273,1.0,6.0,74,0.00, +TSGR FG,SKC,-99.99,VWS V12.07,2013-02-20 08:00:00,
2013-02-20 02:05:00,8.6,2.0,30.17,West,273,2.0,8.0,74,0.00, +TSGR FG,SKC,-99.99,VWS V12.07,2013-02-20 08:05:00,
2013-02-20 02:15:00,8.5,1.9,30.17,West,273,5.0,7.0,74,0.00, +TSGR FG,SKC,-99.99,VWS V12.07,2013-02-20 08:15:00,
2013-02-20 02:20:00,8.5,1.9,30.18,West,273,3.0,7.0,74,0.00, +TSGR FG,SKC,-99.99,VWS V12.07,2013-02-20 08:20:00,
2013-02-20 02:25:00,8.4,1.8,30.18,West,273,5.0,8.0,74,0.00, +TSGR FG,SKC,-99.99,VWS V12.07,2013-02-20 08:25:00,
2013-02-20 02:30:00,8.4,1.8,30.18,West,273,5.0,10.0,74,0.00, +TSGR FG,SKC,-99.99,VWS V12.07,2013-02-20 08:30:00,
2013-02-20 02:35:00,8.4,1.8,30.18,West,273,1.0,10.0,74,0.00, +TSGR FG,SKC,-99.99,VWS V12.07,2013-02-20 08:35:00,
2013-02-20 02:40:00,8.3,2.0,30.18,West,273,3.0,10.0,75,0.00, +TSGR FG,SKC,-99.99,VWS V12.07,2013-02-20 08:40:00,
2013-02-20 02:45:00,8.3,1.7,30.18,West,273,1.0,7.0,74,0.00, +TSGR FG,SKC,-99.99,VWS V12.07,2013-02-20 08:45:00,
2013-02-20 02:50:00,8.3,2.0,30.18,West,273,1.0,8.0,75,0.00, +TSGR FG,SKC,-99.99,VWS V12.07,2013-02-20 08:50:00,
2013-02-20 02:55:00,8.3,2.0,30.19,West,273,3.0,7.0,75,0.00, +TSGR FG,SKC,-99.99,VWS V12.07,2013-02-20 08:55:00,
2013-02-20 03:00:00,8.2,1.9,30.19,West,273,2.0,7.0,75,0.00, +TSGR FG,SKC,-99.99,VWS V12.07,2013-02-20 09:00:00,
2013-02-20 03:05:00,8.2,1.9,30.19,West,273,0.0,6.0,75,0.00, +TSGR FG,SKC,-99.99,VWS V12.07,2013-02-20 09:05:00,
2013-02-20 03:10:00,8.2,1.9,30.19,West,273,1.0,6.0,75,0.00, +TSGR FG,SKC,-99.99,VWS V12.07,2013-02-20 09:10:00,
2013-02-20 03:15:00,8.1,1.8,30.19,West,273,3.0,6.0,75,0.00, +TSGR FG,SKC,-99.99,VWS V12.07,2013-02-20 09:15:00,
2013-02-20 03:20:00,8.1,1.8,30.20,West,273,1.0,7.0,75,0.00, +TSGR FG,SKC,-99.99,VWS V12.07,2013-02-20 09:20:00,
2013-02-20 03:25:00,8.1,1.8,30.20,West,273,0.0,10.0,75,0.00, +TSGR FG,SKC,-99.99,VWS V12.07,2013-02-20 09:25:00,
2013-02-20 03:30:00,8.1,1.8,30.19,West,273,4.0,10.0,75,0.00, +TSGR FG,SKC,-99.99,VWS V12.07,2013-02-20 09:30:00,
2013-02-20 03:35:00,8.1,1.8,30.19,West,273,3.0,9.0,75,0.00, +TSGR FG,SKC,-99.99,VWS V12.07,2013-02-20 09:35:00,
2013-02-20 03:40:00,8.0,1.7,30.19,West,273,3.0,9.0,75,0.00, +TSGR FG,SKC,-99.99,VWS V12.07,2013-02-20 09:40:00,
2013-02-20 03:45:00,8.0,1.7,30.19,West,273,4.0,9.0,75,0.00, +TSGR FG,SKC,-99.99,VWS V12.07,2013-02-20 09:45:00,
2013-02-20 03:50:00,7.9,1.6,30.20,West,273,8.0,11.0,75,0.00, +TSGR FG,SKC,-99.99,VWS V12.07,2013-02-20 09:50:00,
2013-02-20 03:55:00,7.9,1.6,30.20,West,273,12.0,12.0,75,0.00, +TSGR FG,SKC,-99.99,VWS V12.07,2013-02-20 09:55:00,
2013-02-20 04:00:00,7.9,1.6,30.20,West,273,3.0,12.0,75,0.00, +TSGR FG,SKC,-99.99,VWS V12.07,2013-02-20 10:00:00,
2013-02-20 04:05:00,7.8,1.5,30.20,West,273,4.0,6.0,75,0.00, +TSGR FG,SKC,-99.99,VWS V12.07,2013-02-20 10:05:00,
2013-02-20 04:10:00,7.8,1.5,30.20,West,273,2.0,9.0,75,0.00, +TSGR FG,SKC,-99.99,VWS V12.07,2013-02-20 10:10:00,
2013-02-20 04:15:00,7.8,1.5,30.21,West,273,5.0,10.0,75,0.00, +TSGR FG,SKC,-99.99,VWS V12.07,2013-02-20 10:15:00,
2013-02-20 04:20:00,7.8,1.5,30.21,West,273,4.0,10.0,75,0.00, +TSGR FG,SKC,-99.99,VWS V12.07,2013-02-20 10:20:00,
2013-02-20 04:25:00,7.8,1.5,30.21,West,273,6.0,8.0,75,0.00, +TSGR FG,SKC,-99.99,VWS V12.07,2013-02-20 10:25:00,
2013-02-20 04:30:00,7.8,1.5,30.21,West,273,2.0,11.0,75,0.00, +TSGR FG,SKC,-99.99,VWS V12.07,2013-02-20 10:30:00,
2013-02-20 04:35:00,7.8,1.8,30.22,West,273,3.0,9.0,76,0.00, +TSGR FG,SKC,-99.99,VWS V12.07,2013-02-20 10:35:00,
2013-02-20 04:40:00,7.7,1.7,30.22,West,273,1.0,9.0,76,0.00, +TSGR FG,SKC,-99.99,VWS V12.07,2013-02-20 10:40:00,
2013-02-20 04:45:00,7.7,1.7,30.22,West,273,2.0,5.0,76,0.00, +TSGR FG,SKC,-99.99,VWS V12.07,2013-02-20 10:45:00,
2013-02-20 04:50:00,7.6,1.6,30.22,West,273,3.0,8.0,76,0.00, +TSGR FG,SKC,-99.99,VWS V12.07,2013-02-20 10:50:00,
2013-02-20 04:55:00,7.6,1.6,30.22,West,273,5.0,9.0,76,0.00, +TSGR FG,SKC,-99.99,VWS V12.07,2013-02-20 10:55:00,
2013-02-20 05:00:00,7.6,1.9,30.22,West,273,1.0,9.0,77,0.00, +TSGR FG,SKC,-99.99,VWS V12.07,2013-02-20 11:00:00,
2013-02-20 05:05:00,7.6,1.9,30.23,West,273,3.0,7.0,77,0.00, +TSGR FG,SKC,-99.99,VWS V12.07,2013-02-20 11:05:00,
2013-02-20 05:10:00,7.6,1.9,30.23,West,273,2.0,9.0,77,0.00, +TSGR FG,SKC,-99.99,VWS V12.07,2013-02-20 11:10:00,
2013-02-20 05:15:00,7.6,1.9,30.23,West,273,4.0,8.0,77,0.00, +TSGR FG,SKC,-99.99,VWS V12.07,2013-02-20 11:15:00,
2013-02-20 05:20:00,7.6,1.6,30.23,West,273,5.0,8.0,76,0.00, +TSGR FG,SKC,-99.99,VWS V12.07,2013-02-20 11:20:00,
2013-02-20 05:25:00,7.5,1.5,30.23,West,273,2.0,8.0,76,0.00, +TSGR FG,SKC,-99.99,VWS V12.07,2013-02-20 11:25:00,
2013-02-20 05:30:00,7.5,1.5,30.23,West,273,4.0,8.0,76,0.00, +TSGR FG,SKC,-99.99,VWS V12.07,2013-02-20 11:30:00,
2013-02-20 05:35:00,7.5,1.5,30.23,West,273,4.0,8.0,76,0.00, +TSGR FG,SKC,-99.99,VWS V12.07,2013-02-20 11:35:00,
2013-02-20 05:40:00,7.5,1.5,30.23,West,273,1.0,9.0,76,0.00, +TSGR FG,SKC,-99.99,VWS V12.07,2013-02-20 11:40:00,
2013-02-20 05:45:00,7.5,1.5,30.24,West,274,5.0,7.0,76,0.00, +TSGR FG,SKC,-99.99,VWS V12.07,2013-02-20 11:45:00,
2013-02-20 05:50:00,7.4,1.4,30.24,West,273,4.0,13.0,76,0.00, +TSGR FG,SKC,-99.99,VWS V12.07,2013-02-20 11:50:00,
2013-02-20 05:55:00,7.4,1.7,30.24,West,273,1.0,9.0,77,0.00, +TSGR FG,SKC,-99.99,VWS V12.07,2013-02-20 11:55:00,
2013-02-20 06:00:00,7.4,1.7,30.24,West,273,4.0,9.0,77,0.00, +TSGR FG,SKC,-99.99,VWS V12.07,2013-02-20 12:00:00,
2013-02-20 06:05:00,7.3,1.6,30.24,West,273,6.0,8.0,77,0.00, +TSGR FG,SKC,-99.99,VWS V12.07,2013-02-20 12:05:00,
2013-02-20 06:10:00,7.3,1.6,30.25,West,273,3.0,8.0,77,0.00, +TSGR FG,SKC,-99.99,VWS V12.07,2013-02-20 12:10:00,
2013-02-20 06:15:00,7.3,1.6,30.25,West,273,3.0,7.0,77,0.00, +TSGR FG,SKC,-99.99,VWS V12.07,2013-02-20 12:15:00,
2013-02-20 06:20:00,7.3,1.6,30.25,West,273,2.0,8.0,77,0.00, +TSGR FG,SKC,-99.99,VWS V12.07,2013-02-20 12:20:00,
2013-02-20 06:25:00,7.2,1.5,30.25,West,273,4.0,7.0,77,0.00, +TSGR FG,SKC,-99.99,VWS V12.07,2013-02-20 12:25:00,
2013-02-20 06:30:00,7.2,1.8,30.25,West,273,2.0,8.0,78,0.00, +TSGR FG,SKC,-99.99,VWS V12.07,2013-02-20 12:30:00,
2013-02-20 06:35:00,7.2,1.8,30.25,West,273,2.0,7.0,78,0.00, +TSGR FG,SKC,-99.99,VWS V12.07,2013-02-20 12:35:00,
2013-02-20 06:40:00,7.2,1.8,30.25,West,273,4.0,7.0,78,0.00, +TSGR FG,SKC,-99.99,VWS V12.07,2013-02-20 12:40:00,
2013-02-20 06:45:00,7.1,1.7,30.26,West,273,2.0,4.0,78,0.00, +TSGR FG,SKC,-99.99,VWS V12.07,2013-02-20 12:45:00,
2013-02-20 06:50:00,7.1,1.7,30.26,West,273,2.0,6.0,78,0.00, +TSGR FG,SKC,-99.99,VWS V12.07,2013-02-20 12:50:00,
2013-02-20 06:55:00,7.2,1.8,30.26,West,273,4.0,8.0,78,0.00, +TSGR FG,SKC,-99.99,VWS V12.07,2013-02-20 12:55:00,
2013-02-20 07:00:00,7.3,1.9,30.26,West,273,4.0,8.0,78,0.00, +TSGR FG,SKC,-99.99,VWS V12.07,2013-02-20 13:00:00,
2013-02-20 07:05:00,7.4,2.0,30.26,West,273,2.0,7.0,78,0.00, +TSGR FG,SKC,-99.99,VWS V12.07,2013-02-20 13:05:00,
2013-02-20 07:10:00,7.5,2.1,30.26,West,273,3.0,7.0,78,0.00, +TSGR FG,SKC,-99.99,VWS V12.07,2013-02-20 13:10:00,
2013-02-20 07:15:00,7.7,2.3,30.26,West,273,4.0,7.0,78,0.00, +TSGR FG,SKC,-99.99,VWS V12.07,2013-02-20 13:15:00,
2013-02-20 07:20:00,7.9,2.5,30.27,West,273,4.0,7.0,78,0.00, +TSGR FG,SKC,-99.99,VWS V12.07,2013-02-20 13:20:00,
2013-02-20 07:25:00,8.0,2.3,30.27,West,273,4.0,7.0,77,0.00, +TSGR FG,SKC,-99.99,VWS V12.07,2013-02-20 13:25:00,
2013-02-20 07:30:00,8.2,2.5,30.27,West,273,1.0,7.0,77,0.00, +TSGR FG,SKC,-99.99,VWS V12.07,2013-02-20 13:30:00,
2013-02-20 07:35:00,8.4,2.7,30.27,West,273,5.0,5.0,77,0.00, +TSGR FG,SKC,-99.99,VWS V12.07,2013-02-20 13:35:00,
2013-02-20 07:40:00,8.6,2.9,30.27,West,273,3.0,7.0,77,0.00, +TSGR FG,SKC,-99.99,VWS V12.07,2013-02-20 13:40:00,
2013-02-20 07:45:00,8.6,2.6,30.27,West,273,3.0,7.0,76,0.00, +TSGR FG,SKC,-99.99,VWS V12.07,2013-02-20 13:45:00,
2013-02-20 07:50:00,8.7,2.7,30.27,West,273,2.0,7.0,76,0.00, +TSGR FG,SKC,-99.99,VWS V12.07,2013-02-20 13:50:00,
2013-02-20 07:55:00,9.0,3.0,30.27,West,273,5.0,11.0,76,0.00, +TSGR FG,SKC,-99.99,VWS V12.07,2013-02-20 13:55:00,
2013-02-20 08:00:00,9.1,3.1,30.27,West,273,5.0,11.0,76,0.00, +TSGR FG,SKC,-99.99,VWS V12.07,2013-02-20 14:00:00,
2013-02-20 08:05:00,9.3,3.3,30.27,West,273,3.0,9.0,76,0.00, +TSGR FG,SKC,-99.99,VWS V12.07,2013-02-20 14:05:00,
2013-02-20 08:10:00,9.6,3.6,30.27,West,273,4.0,9.0,76,0.00, +TSGR FG,SKC,-99.99,VWS V12.07,2013-02-20 14:10:00,
2013-02-20 08:15:00,9.9,3.9,30.27,West,273,2.0,6.0,76,0.00, +TSGR FG,SKC,-99.99,VWS V12.07,2013-02-20 14:15:00,
2013-02-20 08:20:00,10.1,3.8,30.27,West,273,6.0,10.0,75,0.00, +TSGR FG,SKC,-99.99,VWS V12.07,2013-02-20 14:20:00,
2013-02-20 08:25:00,10.3,4.0,30.27,West,273,1.0,8.0,75,0.00, +TSGR FG,SKC,-99.99,VWS V12.07,2013-02-20 14:25:00,
2013-02-20 08:30:00,10.6,4.2,30.27,West,273,6.0,9.0,75,0.00, +TSGR FG,SKC,-99.99,VWS V12.07,2013-02-20 14:30:00,
2013-02-20 08:40:00,11.2,4.8,30.27,West,273,7.0,7.0,75,0.00, +TSGR FG,SKC,-99.99,VWS V12.07,2013-02-20 14:40:00,
2013-02-20 08:45:00,11.2,4.5,30.27,West,273,4.0,9.0,74,0.00, +TSGR FG,SKC,-99.99,VWS V12.07,2013-02-20 14:45:00,
2013-02-20 08:50:00,11.4,4.7,30.27,West,273,6.0,9.0,74,0.00, +TSGR FG,SKC,-99.99,VWS V12.07,2013-02-20 14:50:00,
2013-02-20 08:55:00,11.7,5.0,30.27,West,273,3.0,6.0,74,0.00, +TSGR FG,SKC,-99.99,VWS V12.07,2013-02-20 14:55:00,
2013-02-20 09:00:00,11.9,5.2,30.28,West,273,3.0,7.0,74,0.00, +TSGR FG,SKC,-99.99,VWS V12.07,2013-02-20 15:00:00,
2013-02-20 09:05:00,12.3,5.6,30.27,West,273,6.0,8.0,74,0.00, +TSGR FG,SKC,-99.99,VWS V12.07,2013-02-20 15:05:00,
2013-02-20 09:10:00,12.3,5.6,30.27,West,273,4.0,12.0,74,0.00, +TSGR FG,SKC,-99.99,VWS V12.07,2013-02-20 15:10:00,
2013-02-20 09:15:00,12.6,5.9,30.27,West,273,5.0,8.0,74,0.00, +TSGR FG,SKC,-99.99,VWS V12.07,2013-02-20 15:15:00,
2013-02-20 09:20:00,12.8,6.1,30.27,West,273,3.0,10.0,74,0.00, +TSGR FG,SKC,-99.99,VWS V12.07,2013-02-20 15:20:00,
2013-02-20 09:25:00,13.0,6.0,30.27,West,273,2.0,9.0,73,0.00, +TSGR FG,SKC,-99.99,VWS V12.07,2013-02-20 15:25:00,
2013-02-20 09:30:00,13.3,6.6,30.28,West,273,10.0,13.0,74,0.00, +TSGR FG,SKC,-99.99,VWS V12.07,2013-02-20 15:30:00,
2013-02-20 09:35:00,13.7,7.0,30.28,West,273,6.0,6.0,74,0.00, +TSGR FG,SKC,-99.99,VWS V12.07,2013-02-20 15:35:00,
2013-02-20 09:40:00,13.9,6.9,30.28,West,273,2.0,9.0,73,0.00, +TSGR FG,SKC,-99.99,VWS V12.07,2013-02-20 15:40:00,
2013-02-20 09:45:00,14.1,6.8,30.28,West,273,2.0,8.0,72,0.00, +TSGR FG,SKC,-99.99,VWS V12.07,2013-02-20 15:45:00,
2013-02-20 09:50:00,14.6,7.5,30.28,West,273,6.0,8.0,73,0.00, +TSGR FG,SKC,-99.99,VWS V12.07,2013-02-20 15:50:00,
2013-02-20 09:55:00,15.0,7.6,30.28,West,273,4.0,12.0,72,0.00, +TSGR FG,SKC,-99.99,VWS V12.07,2013-02-20 15:55:00,
2013-02-20 10:00:00,15.4,8.0,30.28,West,273,6.0,12.0,72,0.00, +TSGR FG,SKC,-99.99,VWS V12.07,2013-02-20 16:00:00,
2013-02-20 10:05:00,15.2,7.2,30.28,West,273,4.0,14.0,70,0.00, +TSGR FG,SKC,-99.99,VWS V12.07,2013-02-20 16:05:00,
2013-02-20 10:10:00,15.6,7.9,30.28,West,273,8.0,14.0,71,0.00, +TSGR FG,SKC,-99.99,VWS V12.07,2013-02-20 16:10:00,
2013-02-20 10:15:00,15.8,7.8,30.28,West,273,3.0,10.0,70,0.00, +TSGR FG,SKC,-99.99,VWS V12.07,2013-02-20 16:15:00,
2013-02-20 10:20:00,15.9,7.9,30.28,West,273,2.0,10.0,70,0.00, +TSGR FG,SKC,-99.99,VWS V12.07,2013-02-20 16:20:00,
2013-02-20 10:25:00,16.2,8.1,30.28,West,273,5.0,8.0,70,0.00, +TSGR FG,SKC,-99.99,VWS V12.07,2013-02-20 16:25:00,
2013-02-20 10:30:00,16.4,8.3,30.28,West,273,5.0,9.0,70,0.00, +TSGR FG,SKC,-99.99,VWS V12.07,2013-02-20 16:30:00,
2013-02-20 10:35:00,16.2,7.8,30.29,West,273,3.0,10.0,69,0.00, +TSGR FG,SKC,-99.99,VWS V12.07,2013-02-20 16:35:00,
2013-02-20 10:40:00,16.6,8.2,30.29,West,273,0.0,10.0,69,0.00, +TSGR FG,SKC,-99.99,VWS V12.07,2013-02-20 16:40:00,
2013-02-20 10:45:00,17.0,8.9,30.29,West,273,4.0,8.0,70,0.00, +TSGR FG,SKC,-99.99,VWS V12.07,2013-02-20 16:45:00,
2013-02-20 10:50:00,17.0,8.6,30.29,West,273,5.0,10.0,69,0.00, +TSGR FG,SKC,-99.99,VWS V12.07,2013-02-20 16:50:00,
2013-02-20 10:55:00,17.5,9.4,30.30,West,273,5.0,7.0,70,0.00, +TSGR FG,SKC,-99.99,VWS V12.07,2013-02-20 16:55:00,
2013-02-20 11:00:00,17.6,9.2,30.30,West,273,3.0,7.0,69,0.00, +TSGR FG,SKC,-99.99,VWS V12.07,2013-02-20 17:00:00,
2013-02-20 11:05:00,17.9,9.5,30.30,West,273,3.0,8.0,69,0.00, +TSGR FG,SKC,-99.99,VWS V12.07,2013-02-20 17:05:00,
2013-02-20 11:10:00,17.9,9.1,30.30,West,273,6.0,8.0,68,0.00, +TSGR FG,SKC,-99.99,VWS V12.07,2013-02-20 17:10:00,
2013-02-20 11:15:00,18.0,9.2,30.30,West,273,1.0,6.0,68,0.00, +TSGR FG,SKC,-99.99,VWS V12.07,2013-02-20 17:15:00,
2013-02-20 11:20:00,18.4,9.9,30.31,West,273,4.0,6.0,69,0.00, +TSGR FG,SKC,-99.99,VWS V12.07,2013-02-20 17:20:00,
2013-02-20 11:25:00,18.6,9.8,30.31,West,273,8.0,9.0,68,0.00, +TSGR FG,SKC,-99.99,VWS V12.07,2013-02-20 17:25:00,
2013-02-20 11:30:00,18.4,9.6,30.31,West,273,4.0,9.0,68,0.00, +TSGR FG,SKC,-99.99,VWS V12.07,2013-02-20 17:30:00,
2013-02-20 11:35:00,18.4,9.6,30.31,West,273,1.0,9.0,68,0.00, +TSGR FG,SKC,-99.99,VWS V12.07,2013-02-20 17:35:00,
2013-02-20 11:40:00,18.7,9.9,30.31,West,273,4.0,9.0,68,0.00, +TSGR FG,SKC,-99.99,VWS V12.07,2013-02-20 17:40:00,
2013-02-20 11:45:00,18.8,10.0,30.31,West,273,3.0,8.0,68,0.00, +TSGR FG,SKC,-99.99,VWS V12.07,2013-02-20 17:45:00,
2013-02-20 11:50:00,19.0,10.5,30.31,West,273,4.0,8.0,69,0.00, +TSGR FG,SKC,-99.99,VWS V12.07,2013-02-20 17:50:00,
2013-02-20 11:55:00,19.2,10.1,30.31,West,273,3.0,8.0,67,0.00, +TSGR FG,SKC,-99.99,VWS V12.07,2013-02-20 17:55:00,
2013-02-20 12:00:00,19.1,9.6,30.31,West,273,1.0,8.0,66,0.00, +TSGR FG,SKC,-99.99,VWS V12.07,2013-02-20 18:00:00,
2013-02-20 12:05:00,19.2,10.1,30.30,West,273,2.0,8.0,67,0.00, +TSGR FG,SKC,-99.99,VWS V12.07,2013-02-20 18:05:00,
2013-02-20 12:10:00,19.7,10.9,30.30,West,273,3.0,8.0,68,0.00, +TSGR FG,SKC,-99.99,VWS V12.07,2013-02-20 18:10:00,
2013-02-20 12:15:00,19.7,10.2,30.31,West,273,3.0,8.0,66,0.00, +TSGR FG,SKC,-99.99,VWS V12.07,2013-02-20 18:15:00,
2013-02-20 12:20:00,19.5,10.3,30.30,West,273,5.0,10.0,67,0.00, +TSGR FG,SKC,-99.99,VWS V12.07,2013-02-20 18:20:00,
2013-02-20 12:25:00,19.3,10.1,30.30,West,273,3.0,8.0,67,0.00, +TSGR FG,SKC,-99.99,VWS V12.07,2013-02-20 18:25:00,
2013-02-20 12:30:00,19.1,10.0,30.30,West,273,2.0,9.0,67,0.00, +TSGR FG,SKC,-99.99,VWS V12.07,2013-02-20 18:30:00,
2013-02-20 12:40:00,20.0,11.5,30.29,West,273,4.0,7.0,69,0.00, +TSGR FG,SKC,-99.99,VWS V12.07,2013-02-20 18:40:00,
2013-02-20 12:45:00,19.7,10.2,30.29,West,273,3.0,9.0,66,0.00, +TSGR FG,SKC,-99.99,VWS V12.07,2013-02-20 18:45:00,
2013-02-20 12:50:00,19.7,10.2,30.29,West,273,6.0,10.0,66,0.00, +TSGR FG,SKC,-99.99,VWS V12.07,2013-02-20 18:50:00,
2013-02-20 12:55:00,19.5,10.0,30.29,West,273,5.0,7.0,66,0.00, +TSGR FG,SKC,-99.99,VWS V12.07,2013-02-20 18:55:00,
2013-02-20 13:00:00,20.0,11.1,30.29,West,273,6.0,7.0,68,0.00, +TSGR FG,SKC,-99.99,VWS V12.07,2013-02-20 19:00:00,
2013-02-20 13:05:00,20.1,10.9,30.29,West,273,4.0,8.0,67,0.00, +TSGR FG,SKC,-99.99,VWS V12.07,2013-02-20 19:05:00,
2013-02-20 13:15:00,19.9,10.7,30.30,West,273,2.0,10.0,67,0.00, +TSGR FG,SKC,-99.99,VWS V12.07,2013-02-20 19:15:00,
2013-02-20 13:20:00,20.1,10.9,30.30,West,273,4.0,10.0,67,0.00, +TSGR FG,SKC,-99.99,VWS V12.07,2013-02-20 19:20:00,
2013-02-20 13:25:00,20.4,11.2,30.31,West,273,3.0,6.0,67,0.00, +TSGR FG,SKC,-99.99,VWS V12.07,2013-02-20 19:25:00,
2013-02-20 13:30:00,20.6,11.1,30.31,West,273,1.0,8.0,66,0.00, +TSGR FG,SKC,-99.99,VWS V12.07,2013-02-20 19:30:00,
2013-02-20 13:35:00,20.9,11.3,30.31,West,273,2.0,7.0,66,0.00, +TSGR FG,SKC,-99.99,VWS V12.07,2013-02-20 19:35:00,
2013-02-20 13:40:00,21.2,11.6,30.31,West,273,2.0,7.0,66,0.00, +TSGR FG,SKC,-99.99,VWS V12.07,2013-02-20 19:40:00,
2013-02-20 13:45:00,21.0,11.1,30.32,West,273,2.0,9.0,65,0.00, +TSGR FG,SKC,-99.99,VWS V12.07,2013-02-20 19:45:00,
2013-02-20 13:50:00,21.1,11.2,30.32,West,273,4.0,9.0,65,0.00, +TSGR FG,SKC,-99.99,VWS V12.07,2013-02-20 19:50:00,
2013-02-20 13:55:00,20.9,11.3,30.32,West,273,2.0,7.0,66,0.00, +TSGR FG,SKC,-99.99,VWS V12.07,2013-02-20 19:55:00,
2013-02-20 14:00:00,20.9,11.0,30.33,West,273,6.0,9.0,65,0.00, +TSGR FG,SKC,-99.99,VWS V12.07,2013-02-20 20:00:00,
2013-02-20 14:05:00,20.8,10.6,30.34,West,273,3.0,7.0,64,0.00, +TSGR FG,SKC,-99.99,VWS V12.07,2013-02-20 20:05:00,
2013-02-20 14:10:00,21.2,11.6,30.34,West,273,4.0,7.0,66,0.00, +TSGR FG,SKC,-99.99,VWS V12.07,2013-02-20 20:10:00,
2013-02-20 14:15:00,21.4,11.1,30.34,West,273,2.0,8.0,64,0.00, +TSGR FG,SKC,-99.99,VWS V12.07,2013-02-20 20:15:00,
2013-02-20 14:20:00,21.2,10.6,30.34,West,273,0.0,9.0,63,0.00, +TSGR FG,SKC,-99.99,VWS V12.07,2013-02-20 20:20:00,
2013-02-20 14:25:00,21.6,11.7,30.34,West,273,3.0,5.0,65,0.00, +TSGR FG,SKC,-99.99,VWS V12.07,2013-02-20 20:25:00,
2013-02-20 14:30:00,21.9,12.0,30.34,West,273,3.0,6.0,65,0.00, +TSGR FG,SKC,-99.99,VWS V12.07,2013-02-20 20:30:00,
2013-02-20 14:35:00,21.9,11.6,30.34,West,273,2.0,6.0,64,0.00, +TSGR FG,SKC,-99.99,VWS V12.07,2013-02-20 20:35:00,
2013-02-20 14:40:00,21.9,12.0,30.34,West,273,1.0,7.0,65,0.00, +TSGR FG,SKC,-99.99,VWS V12.07,2013-02-20 20:40:00,
2013-02-20 14:50:00,22.2,11.9,30.34,West,273,2.0,6.0,64,0.00, +TSGR FG,SKC,-99.99,VWS V12.07,2013-02-20 20:50:00,
2013-02-20 14:55:00,22.0,11.4,30.34,West,273,3.0,7.0,63,0.00, +TSGR FG,SKC,-99.99,VWS V12.07,2013-02-20 20:55:00,
2013-02-20 15:00:00,22.0,11.4,30.34,West,273,4.0,9.0,63,0.00, +TSGR FG,SKC,-99.99,VWS V12.07,2013-02-20 21:00:00,
2013-02-20 15:10:00,21.9,11.6,30.33,West,273,5.0,9.0,64,0.00, +TSGR FG,SKC,-99.99,VWS V12.07,2013-02-20 21:10:00,
2013-02-20 15:15:00,22.1,12.1,30.33,West,273,2.0,8.0,65,0.00, +TSGR FG,SKC,-99.99,VWS V12.07,2013-02-20 21:15:00,
2013-02-20 15:20:00,21.9,11.6,30.33,West,273,4.0,8.0,64,0.00, +TSGR FG,SKC,-99.99,VWS V12.07,2013-02-20 21:20:00,
2013-02-20 15:25:00,21.7,11.8,30.33,West,273,3.0,4.0,65,0.00, +TSGR FG,SKC,-99.99,VWS V12.07,2013-02-20 21:25:00,
2013-02-20 15:30:00,21.5,11.2,30.32,West,273,2.0,8.0,64,0.00, +TSGR FG,SKC,-99.99,VWS V12.07,2013-02-20 21:30:00,
2013-02-20 15:35:00,21.4,11.1,30.32,West,273,1.0,8.0,64,0.00, +TSGR FG,SKC,-99.99,VWS V12.07,2013-02-20 21:35:00,
2013-02-20 15:40:00,21.6,11.7,30.32,West,273,3.0,8.0,65,0.00, +TSGR FG,SKC,-99.99,VWS V12.07,2013-02-20 21:40:00,
2013-02-20 15:45:00,21.7,11.8,30.32,West,273,4.0,7.0,65,0.00, +TSGR FG,SKC,-99.99,VWS V12.07,2013-02-20 21:45:00,
2013-02-20 15:50:00,21.6,11.3,30.32,West,273,3.0,7.0,64,0.00, +TSGR FG,SKC,-99.99,VWS V12.07,2013-02-20 21:50:00,
2013-02-20 15:55:00,21.7,11.8,30.32,West,273,0.0,3.0,65,0.00, +TSGR FG,SKC,-99.99,VWS V12.07,2013-02-20 21:55:00,
2013-02-20 16:00:00,21.8,11.5,30.32,West,273,5.0,6.0,64,0.00, +TSGR FG,SKC,-99.99,VWS V12.07,2013-02-20 22:00:00,
2013-02-20 16:05:00,21.7,11.8,30.32,West,273,6.0,6.0,65,0.00, +TSGR FG,SKC,-99.99,VWS V12.07,2013-02-20 22:05:00,
2013-02-20 16:10:00,21.5,11.6,30.32,West,273,4.0,8.0,65,0.00, +TSGR FG,SKC,-99.99,VWS V12.07,2013-02-20 22:10:00,
2013-02-20 16:15:00,21.5,11.6,30.33,West,273,1.0,7.0,65,0.00, +TSGR FG,SKC,-99.99,VWS V12.07,2013-02-20 22:15:00,
2013-02-20 16:20:00,21.3,11.0,30.33,West,274,2.0,8.0,64,0.00, +TSGR FG,SKC,-99.99,VWS V12.07,2013-02-20 22:20:00,
2013-02-20 16:25:00,21.3,11.4,30.33,West,273,2.0,9.0,65,0.00, +TSGR FG,SKC,-99.99,VWS V12.07,2013-02-20 22:25:00,
2013-02-20 16:30:00,21.2,11.3,30.33,West,273,4.0,9.0,65,0.00, +TSGR FG,SKC,-99.99,VWS V12.07,2013-02-20 22:30:00,
2013-02-20 16:35:00,21.3,11.4,30.33,West,273,3.0,6.0,65,0.00, +TSGR FG,SKC,-99.99,VWS V12.07,2013-02-20 22:35:00,
2013-02-20 16:40:00,21.2,11.3,30.33,West,273,2.0,7.0,65,0.00, +TSGR FG,SKC,-99.99,VWS V12.07,2013-02-20 22:40:00,
2013-02-20 16:45:00,21.1,11.5,30.33,West,273,2.0,8.0,66,0.00, +TSGR FG,SKC,-99.99,VWS V12.07,2013-02-20 22:45:00,
2013-02-20 16:50:00,21.1,11.5,30.33,West,273,7.0,8.0,66,0.00, +TSGR FG,SKC,-99.99,VWS V12.07,2013-02-20 22:50:00,
2013-02-20 16:55:00,20.9,11.3,30.33,West,274,3.0,7.0,66,0.00, +TSGR FG,SKC,-99.99,VWS V12.07,2013-02-20 22:55:00,
2013-02-20 17:00:00,20.7,11.1,30.33,West,273,4.0,8.0,66,0.00, +TSGR FG,SKC,-99.99,VWS V12.07,2013-02-20 23:00:00,
2013-02-20 17:05:00,20.6,11.4,30.33,West,273,2.0,7.0,67,0.00, +TSGR FG,SKC,-99.99,VWS V12.07,2013-02-20 23:05:00,
2013-02-20 17:10:00,20.6,11.7,30.33,West,273,3.0,7.0,68,0.00, +TSGR FG,SKC,-99.99,VWS V12.07,2013-02-20 23:10:00,
2013-02-20 17:15:00,20.4,11.2,30.33,West,273,1.0,6.0,67,0.00, +TSGR FG,SKC,-99.99,VWS V12.07,2013-02-20 23:15:00,
2013-02-20 17:20:00,20.3,11.4,30.33,West,273,0.0,6.0,68,0.00, +TSGR FG,SKC,-99.99,VWS V12.07,2013-02-20 23:20:00,
2013-02-20 17:25:00,20.3,11.4,30.33,West,273,3.0,6.0,68,0.00, +TSGR FG,SKC,-99.99,VWS V12.07,2013-02-20 23:25:00,
2013-02-20 17:30:00,20.2,11.7,30.33,West,273,3.0,6.0,69,0.00, +TSGR FG,SKC,-99.99,VWS V12.07,2013-02-20 23:30:00,
2013-02-20 17:35:00,20.0,11.5,30.33,West,273,3.0,7.0,69,0.00, +TSGR FG,SKC,-99.99,VWS V12.07,2013-02-20 23:35:00,
2013-02-20 17:40:00,20.0,11.5,30.33,West,273,5.0,7.0,69,0.00, +TSGR FG,SKC,-99.99,VWS V12.07,2013-02-20 23:40:00,
2013-02-20 17:45:00,20.0,11.8,30.33,West,273,0.0,4.0,70,0.00, +TSGR FG,SKC,-99.99,VWS V12.07,2013-02-20 23:45:00,
2013-02-20 17:50:00,19.8,11.6,30.33,West,273,0.0,4.0,70,0.00, +TSGR FG,SKC,-99.99,VWS V12.07,2013-02-20 23:50:00,
2013-02-20 17:55:00,19.8,11.6,30.33,West,273,2.0,4.0,70,0.00, +TSGR FG,SKC,-99.99,VWS V12.07,2013-02-20 23:55:00,
2013-02-20 18:00:00,19.8,11.6,30.33,West,273,2.0,5.0,70,0.00, +TSGR FG,SKC,-99.99,VWS V12.07,2013-02-21 00:00:00,
2013-02-20 18:05:00,19.7,11.8,30.33,West,273,0.0,3.0,71,0.00, +TSGR FG,SKC,-99.99,VWS V12.07,2013-02-21 00:05:00,
2013-02-20 18:10:00,19.6,11.7,30.33,West,273,0.0,3.0,71,0.00, +TSGR FG,SKC,-99.99,VWS V12.07,2013-02-21 00:10:00,
2013-02-20 18:15:00,19.4,11.6,30.33,West,273,1.0,3.0,71,0.00, +TSGR FG,SKC,-99.99,VWS V12.07,2013-02-21 00:15:00,
2013-02-20 18:20:00,19.3,11.8,30.33,West,273,1.0,3.0,72,0.00, +TSGR FG,SKC,-99.99,VWS V12.07,2013-02-21 00:20:00,
2013-02-20 18:25:00,19.3,11.8,30.33,West,273,1.0,3.0,72,0.00, +TSGR FG,SKC,-99.99,VWS V12.07,2013-02-21 00:25:00,
2013-02-20 18:30:00,19.2,11.7,30.33,West,273,1.0,3.0,72,0.00, +TSGR FG,SKC,-99.99,VWS V12.07,2013-02-21 00:30:00,
2013-02-20 18:35:00,19.1,11.6,30.32,West,273,0.0,1.0,72,0.00, +TSGR FG,SKC,-99.99,VWS V12.07,2013-02-21 00:35:00,
2013-02-20 18:40:00,18.9,11.7,30.32,West,273,0.0,1.0,73,0.00, +TSGR FG,SKC,-99.99,VWS V12.07,2013-02-21 00:40:00,
2013-02-20 18:45:00,18.7,11.5,30.32,West,273,0.0,0.0,73,0.00, +TSGR FG,SKC,-99.99,VWS V12.07,2013-02-21 00:45:00,
2013-02-20 18:50:00,18.4,11.5,30.33,West,273,0.0,0.0,74,0.00, +TSGR FG,SKC,-99.99,VWS V12.07,2013-02-21 00:50:00,
2013-02-20 18:55:00,18.1,11.5,30.33,West,273,0.0,1.0,75,0.00, +TSGR FG,SKC,-99.99,VWS V12.07,2013-02-21 00:55:00,
2013-02-20 19:00:00,17.9,11.6,30.33,West,273,0.0,1.0,76,0.00, +TSGR FG,SKC,-99.99,VWS V12.07,2013-02-21 01:00:00,
2013-02-20 19:05:00,17.6,11.3,30.33,West,273,0.0,0.0,76,0.00, +TSGR FG,SKC,-99.99,VWS V12.07,2013-02-21 01:05:00,
2013-02-20 19:10:00,17.5,11.5,30.33,West,273,0.0,0.0,77,0.00, +TSGR FG,SKC,-99.99,VWS V12.07,2013-02-21 01:10:00,
2013-02-20 19:20:00,17.3,11.6,30.33,West,273,0.0,2.0,78,0.00, +TSGR FG,SKC,-99.99,VWS V12.07,2013-02-21 01:20:00,
2013-02-20 19:25:00,17.2,11.5,30.33,West,273,0.0,0.0,78,0.00, +TSGR FG,SKC,-99.99,VWS V12.07,2013-02-21 01:25:00,
2013-02-20 19:30:00,17.2,11.5,30.33,West,273,0.0,0.0,78,0.00, +TSGR FG,SKC,-99.99,VWS V12.07,2013-02-21 01:30:00,
2013-02-20 19:35:00,17.1,11.7,30.33,West,273,0.0,0.0,79,0.00, +TSGR FG,SKC,-99.99,VWS V12.07,2013-02-21 01:35:00,
2013-02-20 19:40:00,17.0,11.6,30.33,West,273,0.0,1.0,79,0.00, +TSGR FG,SKC,-99.99,VWS V12.07,2013-02-21 01:40:00,
2013-02-20 19:45:00,16.9,11.5,30.32,West,273,0.0,0.0,79,0.00, +TSGR FG,SKC,-99.99,VWS V12.07,2013-02-21 01:45:00,
2013-02-20 19:50:00,16.8,11.4,30.32,West,273,0.0,0.0,79,0.00, +TSGR FG,SKC,-99.99,VWS V12.07,2013-02-21 01:50:00,
2013-02-20 19:55:00,16.7,11.3,30.32,West,273,0.0,0.0,79,0.00, +TSGR FG,SKC,-99.99,VWS V12.07,2013-02-21 01:55:00,
2013-02-20 20:00:00,16.5,11.4,30.32,West,273,0.0,0.0,80,0.00, +TSGR FG,SKC,-99.99,VWS V12.07,2013-02-21 02:00:00,
2013-02-20 20:05:00,16.4,11.6,30.32,West,273,0.0,0.0,81,0.00, +TSGR FG,SKC,-99.99,VWS V12.07,2013-02-21 02:05:00,
2013-02-20 20:10:00,16.2,11.4,30.32,West,273,0.0,0.0,81,0.00, +TSGR FG,SKC,-99.99,VWS V12.07,2013-02-21 02:10:00,
2013-02-20 20:15:00,16.1,11.3,30.32,West,273,0.0,0.0,81,0.00, +TSGR FG,SKC,-99.99,VWS V12.07,2013-02-21 02:15:00,
2013-02-20 20:20:00,15.9,11.4,30.32,West,273,0.0,0.0,82,0.00, +TSGR FG,SKC,-99.99,VWS V12.07,2013-02-21 02:20:00,
2013-02-20 20:25:00,15.9,11.4,30.32,West,273,0.0,0.0,82,0.00, +TSGR FG,SKC,-99.99,VWS V12.07,2013-02-21 02:25:00,
2013-02-20 20:30:00,15.8,11.6,30.32,West,273,0.0,0.0,83,0.00, +TSGR FG,SKC,-99.99,VWS V12.07,2013-02-21 02:30:00,
2013-02-20 20:35:00,15.7,11.5,30.33,West,273,0.0,0.0,83,0.00, +TSGR FG,SKC,-99.99,VWS V12.07,2013-02-21 02:35:00,
2013-02-20 20:40:00,15.6,11.6,30.32,West,273,0.0,0.0,84,0.00, +TSGR FG,SKC,-99.99,VWS V12.07,2013-02-21 02:40:00,
2013-02-20 20:45:00,15.4,11.4,30.32,West,273,0.0,0.0,84,0.00, +TSGR FG,SKC,-99.99,VWS V12.07,2013-02-21 02:45:00,
2013-02-20 20:50:00,15.4,11.4,30.32,West,273,0.0,0.0,84,0.00, +TSGR FG,SKC,-99.99,VWS V12.07,2013-02-21 02:50:00,
2013-02-20 20:55:00,15.3,11.3,30.32,West,273,0.0,0.0,84,0.00, +TSGR FG,SKC,-99.99,VWS V12.07,2013-02-21 02:55:00,
2013-02-20 21:00:00,15.2,11.2,30.32,West,273,0.0,0.0,84,0.00, +TSGR FG,SKC,-99.99,VWS V12.07,2013-02-21 03:00:00,
2013-02-20 21:05:00,15.3,11.6,30.31,West,273,0.0,1.0,85,0.00, +TSGR FG,SKC,-99.99,VWS V12.07,2013-02-21 03:05:00,
2013-02-20 21:10:00,15.5,11.8,30.32,West,273,0.0,1.0,85,0.00, +TSGR FG,SKC,-99.99,VWS V12.07,2013-02-21 03:10:00,
2013-02-20 21:15:00,15.7,11.7,30.32,West,273,0.0,1.0,84,0.00, +TSGR FG,SKC,-99.99,VWS V12.07,2013-02-21 03:15:00,
2013-02-20 21:20:00,15.7,11.7,30.32,West,273,0.0,1.0,84,0.00, +TSGR FG,SKC,-99.99,VWS V12.07,2013-02-21 03:20:00,
2013-02-20 21:25:00,15.8,11.8,30.32,West,273,0.0,0.0,84,0.00, +TSGR FG,SKC,-99.99,VWS V12.07,2013-02-21 03:25:00,
2013-02-20 21:30:00,16.2,12.2,30.32,West,273,3.0,3.0,84,0.00, +TSGR FG,SKC,-99.99,VWS V12.07,2013-02-21 03:30:00,
2013-02-20 21:35:00,16.7,12.2,30.32,West,273,0.0,2.0,82,0.00, +TSGR FG,SKC,-99.99,VWS V12.07,2013-02-21 03:35:00,
2013-02-20 21:40:00,16.9,12.1,30.32,West,273,0.0,2.0,81,0.00, +TSGR FG,SKC,-99.99,VWS V12.07,2013-02-21 03:40:00,
2013-02-20 21:45:00,16.9,12.1,30.32,West,273,0.0,2.0,81,0.00, +TSGR FG,SKC,-99.99,VWS V12.07,2013-02-21 03:45:00,
2013-02-20 21:50:00,17.0,12.2,30.32,West,273,0.0,2.0,81,0.00, +TSGR FG,SKC,-99.99,VWS V12.07,2013-02-21 03:50:00,
2013-02-20 21:55:00,17.0,11.9,30.33,West,273,0.0,1.0,80,0.00, +TSGR FG,SKC,-99.99,VWS V12.07,2013-02-21 03:55:00,
2013-02-20 22:00:00,16.9,11.8,30.33,West,273,0.0,1.0,80,0.00, +TSGR FG,SKC,-99.99,VWS V12.07,2013-02-21 04:00:00,
2013-02-20 22:05:00,17.0,11.9,30.33,West,273,2.0,2.0,80,0.00, +TSGR FG,SKC,-99.99,VWS V12.07,2013-02-21 04:05:00,
2013-02-20 22:10:00,17.0,11.9,30.33,West,273,0.0,2.0,80,0.00, +TSGR FG,SKC,-99.99,VWS V12.07,2013-02-21 04:10:00,
2013-02-20 22:15:00,16.9,11.5,30.33,West,273,2.0,2.0,79,0.00, +TSGR FG,SKC,-99.99,VWS V12.07,2013-02-21 04:15:00,
2013-02-20 22:20:00,16.8,11.4,30.33,West,273,0.0,2.0,79,0.00, +TSGR FG,SKC,-99.99,VWS V12.07,2013-02-21 04:20:00,
2013-02-20 22:25:00,16.7,11.6,30.33,West,273,0.0,2.0,80,0.00, +TSGR FG,SKC,-99.99,VWS V12.07,2013-02-21 04:25:00,
2013-02-20 22:30:00,16.7,11.6,30.34,West,273,0.0,2.0,80,0.00, +TSGR FG,SKC,-99.99,VWS V12.07,2013-02-21 04:30:00,
2013-02-20 22:40:00,16.5,11.4,30.34,West,273,0.0,1.0,80,0.00, +TSGR FG,SKC,-99.99,VWS V12.07,2013-02-21 04:40:00,
2013-02-20 22:45:00,16.4,11.3,30.33,West,273,0.0,0.0,80,0.00, +TSGR FG,SKC,-99.99,VWS V12.07,2013-02-21 04:45:00,
2013-02-20 22:50:00,16.5,11.4,30.33,West,273,0.0,2.0,80,0.00, +TSGR FG,SKC,-99.99,VWS V12.07,2013-02-21 04:50:00,
2013-02-20 22:55:00,16.4,11.3,30.33,West,273,0.0,1.0,80,0.00, +TSGR FG,SKC,-99.99,VWS V12.07,2013-02-21 04:55:00,
2013-02-20 23:00:00,16.4,11.3,30.34,West,273,0.0,2.0,80,0.00, +TSGR FG,SKC,-99.99,VWS V12.07,2013-02-21 05:00:00,
2013-02-20 23:05:00,16.4,11.3,30.34,West,273,0.0,2.0,80,0.00, +TSGR FG,SKC,-99.99,VWS V12.07,2013-02-21 05:05:00,
2013-02-20 23:10:00,16.3,11.2,30.34,West,273,0.0,2.0,80,0.00, +TSGR FG,SKC,-99.99,VWS V12.07,2013-02-21 05:10:00,
2013-02-20 23:15:00,16.3,11.2,30.34,West,273,1.0,3.0,80,0.00, +TSGR FG,SKC,-99.99,VWS V12.07,2013-02-21 05:15:00,
2013-02-20 23:20:00,16.4,11.6,30.34,West,273,1.0,3.0,81,0.00, +TSGR FG,SKC,-99.99,VWS V12.07,2013-02-21 05:20:00,
2013-02-20 23:25:00,16.5,11.4,30.34,West,273,0.0,4.0,80,0.00, +TSGR FG,SKC,-99.99,VWS V12.07,2013-02-21 05:25:00,
2013-02-20 23:30:00,16.9,11.8,30.34,West,273,0.0,4.0,80,0.00, +TSGR FG,SKC,-99.99,VWS V12.07,2013-02-21 05:30:00,
2013-02-20 23:35:00,17.1,11.7,30.34,West,273,0.0,3.0,79,0.00, +TSGR FG,SKC,-99.99,VWS V12.07,2013-02-21 05:35:00,
2013-02-20 23:40:00,17.3,11.6,30.34,West,273,3.0,3.0,78,0.00, +TSGR FG,SKC,-99.99,VWS V12.07,2013-02-21 05:40:00,
2013-02-20 23:45:00,17.4,11.7,30.34,West,273,2.0,3.0,78,0.00, +TSGR FG,SKC,-99.99,VWS V12.07,2013-02-21 05:45:00,
2013-02-20 23:50:00,17.7,11.7,30.34,West,273,6.0,6.0,77,0.00, +TSGR FG,SKC,-99.99,VWS V12.07,2013-02-21 05:50:00,
2013-02-20 23:55:00,17.8,11.5,30.34,West,273,2.0,4.0,76,0.00, +TSGR FG,SKC,-99.99,VWS V12.07,2013-02-21 05:55:00,